Location: Central Falls
(41.8900°N, 71.3929°W)
Time: 04:33:01
(UTC+00:00)

Vanguard 2 - Pass Details

Date: 06 December 2023
Orbit: 554 x 2918 km, 32.9° (Epoch: 01 March)

Event Time Altitude Azimuth Distance (km) Brightness Sun altitude
Rises 21:48:06 0° 184° (S) 6,297 12.6 -6.4°
Reaches altitude 10° 21:54:53 10° 165° (SSE) 5,578 12.0 -7.5°
Maximum altitude 22:03:26 16° 135° (SE) 5,242 11.5 -9.0°
Drops below altitude 10° 22:12:01 10° 105° (ESE) 5,661 11.5 -10.5°
Enters shadow 22:15:19 - 96° (E) 5,999 11.5 -11.1°
Sets 22:18:51 0° 87° (E) 6,445 - -11.7°
